#timestamp,LO_Frequency,Hit,StdDev 
1590354015.7,286047000.1,N
1590354035.6,286047000.4,N
1590354055.4,286047002.7,N
1590354075.2,286046999.9,N
1590354095.1,286047000.1,N
1590354096.0,286047000.1,N
1590354115.8,286047000.5,N
1590354135.6,286046999.9,N
1590354155.5,286047000.0,N
1590354175.3,286047002.6,N
1590354195.2,286047002.0,N
1590354215.9,286047003.9,N
1590354235.7,286047001.9,N
1590354255.6,286047002.0,N
1590354275.4,286047001.6,N
1590354295.2,286047001.5,N
1590354315.1,286047003.5,N
1590354316.0,286047003.5,N
1590354335.8,286047003.1,N
1590354355.7,286047003.7,N
1590354375.5,286047003.7,N
1590354395.3,286047005.6,Y
1590354415.2,286047003.1,P
1590354435.0,286047002.9,P
1590354435.9,286047002.9,P
1590354455.8,286047003.5,Y
1590354475.6,286047000.2,P
1590354495.4,286046999.7,N
1590354515.3,286047001.9,N
1590354535.1,286047002.2,N
1590354555.8,286047002.3,N
1590354575.7,286047000.5,N
1590354595.5,286047000.9,N
1590354615.4,286047000.8,N
1590354635.2,286046998.2,N
1590354655.0,286047001.2,N
1590354655.9,286047001.2,N
1590354675.8,286046999.6,N
1590354695.6,286046996.8,N
1590354715.5,286046996.5,N
1590354735.3,286046996.9,N
1590354755.1,286046997.6,N
1590354775.9,286046996.5,N
1590354795.7,286046995.0,N
1590354815.6,286046998.4,N
1590354835.4,286046998.4,N
1590354855.2,286046998.7,N
1590354875.1,286046999.1,N
1590354876.0,286046999.1,N
1590354895.8,286046996.6,N
1590354915.6,286046996.5,N
1590354935.5,286046998.9,N
1590354955.3,286046999.2,N
1590354975.2,286046999.3,N
1590354995.9,286046998.7,N
1590355015.7,286047000.8,N
1590355035.6,286047000.7,N
1590355055.4,286046998.4,N
1590355075.2,286046998.7,N
1590355095.1,286046998.2,N
1590355096.0,286046998.2,N
1590355115.8,286047000.7,N
1590355135.7,286046999.6,N
1590355155.5,286046997.1,N
1590355175.3,286046998.2,N
1590355195.2,286046999.6,N
1590355215.0,286046999.1,N
1590355215.9,286046999.1,N
1590355235.7,286046999.2,N
1590355255.6,286046996.8,N
1590355275.4,286046996.7,N
1590355295.3,286046998.5,N
1590355315.1,286046999.1,N
1590355335.8,286046999.2,N
1590355355.7,286046998.3,N
1590355375.5,286046999.6,N
1590355395.4,286046996.6,Y
1590355415.2,286047000.7,P
1590355435.0,286047001.1,N
1590355435.9,286047001.1,N
1590355455.8,286047001.0,N
1590355475.6,286047000.8,N
1590355495.4,286046998.1,N
1590355515.3,286047002.7,N
1590355535.1,286047001.8,N
1590355555.9,286047003.6,N
1590355575.7,286047003.5,N
1590355595.5,286047004.9,N
1590355615.4,286047008.8,Y
1590355635.2,286047005.2,P
1590355655.1,286047004.8,N
1590355656.0,286047004.8,N
1590355675.8,286047001.3,N
1590355695.6,286047002.3,N
1590355715.5,286047002.5,N
1590355735.3,286047001.4,N
1590355755.1,286047004.2,N
1590355775.9,286047004.3,N
1590355795.7,286047004.4,N
1590355815.6,286047002.2,N
1590355835.4,286047002.4,N
1590355855.2,286047001.2,N
1590355875.1,286047001.2,N
1590355876.0,286047001.2,N
1590355895.8,286047001.2,N
1590355915.6,286046998.4,N
1590355935.5,286046998.7,N
1590355955.3,286047000.7,N
1590355975.2,286046999.9,N
1590355995.9,286046999.8,N
1590356015.7,286047001.4,N
1590356035.6,286047003.7,N
1590356055.4,286047003.3,N
1590356075.2,286047000.0,N
1590356095.1,286047000.5,N
1590356096.0,286047000.5,N
1590356115.8,286046998.4,N
1590356135.7,286046998.7,N
1590356155.5,286046999.5,N
1590356175.3,286046998.8,N
1590356195.2,286046998.3,N
1590356215.0,286046998.5,N
1590356215.9,286046998.5,N
1590356235.7,286046996.7,N
1590356255.6,286046999.3,N
1590356275.4,286047001.2,N
1590356295.3,286046996.6,N
1590356315.1,286046996.7,N
1590356316.0,286046996.7,N
1590356335.8,286046998.6,N
1590356355.7,286047001.0,N
1590356375.5,286047001.2,N
1590356395.3,286046998.9,N
1590356415.2,286047001.1,N
1590356435.0,286046998.5,N
1590356435.9,286046998.5,N
1590356455.8,286047001.1,N
1590356475.6,286046999.7,N
1590356495.4,286047002.7,N
1590356515.3,286046999.7,N
1590356535.1,286047000.4,N
1590356555.8,286047001.9,N
1590356575.7,286047001.9,N
1590356595.5,286047001.7,N
1590356615.4,286047004.1,N
1590356635.2,286047002.0,N
1590356655.0,286047003.9,N
1590356655.9,286047003.9,N
1590356675.8,286047003.7,N
1590356695.6,286047002.9,N
1590356715.4,286047003.2,N
1590356735.3,286047004.4,N
1590356755.1,286047003.3,N
1590356775.9,286047004.0,N
1590356795.7,286047002.5,N
1590356815.5,286046998.1,N
1590356835.4,286047001.0,N
1590356855.2,286047002.3,N
1590356875.0,286047001.9,N
1590356876.0,286047001.9,N
1590356895.8,286047000.6,N
1590356915.6,286047002.3,N
1590356935.5,286047002.4,N
1590356955.3,286047000.7,N
1590356975.1,286046999.0,N
1590356995.9,286047000.4,N
1590357015.7,286047000.3,N
1590357035.6,286047000.0,N
1590357055.4,286047000.5,N
1590357075.2,286046998.6,N
1590357095.1,286047000.6,N
1590357096.0,286047000.6,N
1590357115.8,286046998.2,N
1590357135.6,286047000.4,N
1590357155.5,286046999.7,N
1590357175.3,286047000.4,N
1590357195.1,286046999.9,N
1590357215.9,286047002.7,N
1590357235.7,286047004.0,N
1590357255.6,286047003.7,N
1590357275.4,286047001.4,N
1590357295.2,286047002.1,N
1590357315.1,286047002.7,N
1590357316.0,286047002.7,N
1590357335.8,286047001.2,N
1590357355.7,286046998.5,N
1590357375.5,286046998.2,N
1590357395.3,286046996.9,N
1590357415.2,286046996.8,N
1590357435.9,286046997.8,N
1590357455.7,286046999.2,N
1590357475.6,286047000.8,N
1590357495.4,286046998.6,N
1590357515.3,286047011.9,Y
1590357535.1,286046998.8,P
1590357536.0,286046998.8,N
1590357555.8,286046998.6,N
1590357575.7,286046999.1,N
1590357595.5,286046998.9,N
